Time,TemperatureF,DewpointF,PressureIn,WindDirection,WindDirectionDegrees,WindSpeedMPH,WindSpeedGustMPH,Humidity,HourlyPrecipIn,Conditions,Clouds,dailyrainin,SoftwareType,DateUTC
2013-04-13 00:00:00,40.7,34.7,30.06,WSW,250,0.0,1.0,79,0.00,,,0.00,WUHU216DAVISVP2,2013-04-13 05:00:00,
2013-04-13 00:05:00,40.3,34.9,30.06,WSW,248,1.0,1.0,81,0.00,,,0.00,WUHU216DAVISVP2,2013-04-13 05:05:00,
2013-04-13 00:10:00,39.9,34.6,30.06,SW,234,2.0,2.0,81,0.00,,,0.00,WUHU216DAVISVP2,2013-04-13 05:10:00,
2013-04-13 00:15:00,39.8,34.8,30.07,SW,227,2.0,3.0,82,0.00,,,0.00,WUHU216DAVISVP2,2013-04-13 05:15:00,
2013-04-13 00:20:00,39.7,34.7,30.06,WSW,240,1.0,3.0,82,0.00,,,0.00,WUHU216DAVISVP2,2013-04-13 05:20:00,
2013-04-13 00:25:00,39.6,34.6,30.06,SW,219,2.0,3.0,82,0.00,,,0.00,WUHU216DAVISVP2,2013-04-13 05:25:00,
2013-04-13 00:30:00,39.5,34.5,30.06,SW,224,2.0,3.0,82,0.00,,,0.00,WUHU216DAVISVP2,2013-04-13 05:30:00,
2013-04-13 00:35:00,39.4,34.4,30.06,SW,230,0.0,2.0,82,0.00,,,0.00,WUHU216DAVISVP2,2013-04-13 05:35:00,
2013-04-13 00:40:00,39.1,34.4,30.06,SW,230,0.0,2.0,83,0.00,,,0.00,WUHU216DAVISVP2,2013-04-13 05:40:00,
2013-04-13 00:45:00,38.9,34.2,30.06,SSW,212,1.0,1.0,83,0.00,,,0.00,WUHU216DAVISVP2,2013-04-13 05:45:00,
2013-04-13 00:50:00,38.8,34.1,30.06,SSW,212,0.0,2.0,83,0.00,,,0.00,WUHU216DAVISVP2,2013-04-13 05:50:00,
2013-04-13 00:55:00,38.8,33.8,30.05,SSE,162,1.0,2.0,82,0.00,,,0.00,WUHU216DAVISVP2,2013-04-13 05:55:00,
2013-04-13 01:00:00,38.8,33.5,30.05,South,173,2.0,3.0,81,0.00,,,0.00,WUHU216DAVISVP2,2013-04-13 06:00:00,
2013-04-13 01:05:00,38.9,33.3,30.05,SSW,208,1.0,3.0,80,0.00,,,0.00,WUHU216DAVISVP2,2013-04-13 06:05:00,
2013-04-13 01:10:00,38.9,33.3,30.05,SSW,205,1.0,3.0,80,0.00,,,0.00,WUHU216DAVISVP2,2013-04-13 06:10:00,
2013-04-13 01:15:00,38.9,33.0,30.05,SSW,200,0.0,2.0,79,0.00,,,0.00,WUHU216DAVISVP2,2013-04-13 06:15:00,
2013-04-13 01:20:00,38.9,33.0,30.05,South,186,1.0,2.0,79,0.00,,,0.00,WUHU216DAVISVP2,2013-04-13 06:20:00,
2013-04-13 01:25:00,38.8,32.9,30.05,SSW,192,0.0,2.0,79,0.00,,,0.00,WUHU216DAVISVP2,2013-04-13 06:25:00,
2013-04-13 01:30:00,38.6,32.7,30.05,SSW,192,0.0,2.0,79,0.00,,,0.00,WUHU216DAVISVP2,2013-04-13 06:30:00,
2013-04-13 01:35:00,38.4,32.8,30.05,SSW,192,0.0,1.0,80,0.00,,,0.00,WUHU216DAVISVP2,2013-04-13 06:35:00,
2013-04-13 01:40:00,38.1,32.8,30.05,SSW,192,0.0,0.0,81,0.00,,,0.00,WUHU216DAVISVP2,2013-04-13 06:40:00,
2013-04-13 01:46:00,37.9,32.6,30.05,SSW,192,0.0,0.0,81,0.00,,,0.00,WUHU216DAVISVP2,2013-04-13 06:46:00,
2013-04-13 01:51:00,37.7,32.7,30.05,SSW,192,0.0,0.0,82,0.00,,,0.00,WUHU216DAVISVP2,2013-04-13 06:51:00,
2013-04-13 01:56:00,37.5,32.8,30.05,SSW,192,0.0,0.0,83,0.00,,,0.00,WUHU216DAVISVP2,2013-04-13 06:56:00,
2013-04-13 02:01:00,37.3,32.9,30.05,SSW,192,0.0,0.0,84,0.00,,,0.00,WUHU216DAVISVP2,2013-04-13 07:01:00,
2013-04-13 02:07:00,37.3,32.9,30.05,SSW,193,0.0,1.0,84,0.00,,,0.00,WUHU216DAVISVP2,2013-04-13 07:07:00,
2013-04-13 02:12:00,37.4,32.7,30.04,SSW,192,1.0,1.0,83,0.00,,,0.00,WUHU216DAVISVP2,2013-04-13 07:12:00,
2013-04-13 02:17:00,37.3,32.6,30.04,SSW,193,0.0,1.0,83,0.00,,,0.00,WUHU216DAVISVP2,2013-04-13 07:17:00,
2013-04-13 02:22:00,37.1,32.4,30.04,SSW,193,0.0,1.0,83,0.00,,,0.00,WUHU216DAVISVP2,2013-04-13 07:22:00,
2013-04-13 02:27:00,36.7,32.3,30.04,SSW,193,0.0,0.0,84,0.00,,,0.00,WUHU216DAVISVP2,2013-04-13 07:27:00,
2013-04-13 02:32:00,36.6,32.2,30.04,SSW,193,0.0,0.0,84,0.00,,,0.00,WUHU216DAVISVP2,2013-04-13 07:32:00,
2013-04-13 02:37:00,36.6,31.9,30.04,SSW,193,0.0,0.0,83,0.00,,,0.00,WUHU216DAVISVP2,2013-04-13 07:37:00,
2013-04-13 02:42:00,36.7,32.0,30.04,SSW,193,0.0,0.0,83,0.00,,,0.00,WUHU216DAVISVP2,2013-04-13 07:42:00,
2013-04-13 02:48:00,36.5,31.8,30.04,SSW,193,0.0,0.0,83,0.00,,,0.00,WUHU216DAVISVP2,2013-04-13 07:48:00,
2013-04-13 02:53:00,36.7,31.7,30.03,SSW,193,0.0,0.0,82,0.00,,,0.00,WUHU216DAVISVP2,2013-04-13 07:53:00,
2013-04-13 02:58:00,36.8,31.8,30.03,SSW,193,0.0,0.0,82,0.00,,,0.00,WUHU216DAVISVP2,2013-04-13 07:58:00,
2013-04-13 03:03:00,36.9,31.6,30.03,SSW,193,0.0,0.0,81,0.00,,,0.00,WUHU216DAVISVP2,2013-04-13 08:03:00,
2013-04-13 03:08:00,36.7,31.4,30.03,SSW,193,0.0,0.0,81,0.00,,,0.00,WUHU216DAVISVP2,2013-04-13 08:08:00,
2013-04-13 03:13:00,36.6,31.6,30.03,SSW,193,0.0,0.0,82,0.00,,,0.00,WUHU216DAVISVP2,2013-04-13 08:13:00,
2013-04-13 03:18:00,36.4,31.4,30.04,SSW,193,0.0,0.0,82,0.00,,,0.00,WUHU216DAVISVP2,2013-04-13 08:18:00,
2013-04-13 03:23:00,36.4,32.0,30.04,SSW,193,0.0,0.0,84,0.00,,,0.00,WUHU216DAVISVP2,2013-04-13 08:23:00,
2013-04-13 03:28:00,36.5,31.8,30.04,SSW,194,0.0,1.0,83,0.00,,,0.00,WUHU216DAVISVP2,2013-04-13 08:28:00,
2013-04-13 03:33:00,36.4,32.0,30.04,SSW,194,0.0,1.0,84,0.00,,,0.00,WUHU216DAVISVP2,2013-04-13 08:33:00,
2013-04-13 03:38:00,36.2,32.1,30.04,SSW,194,0.0,0.0,85,0.00,,,0.00,WUHU216DAVISVP2,2013-04-13 08:38:00,
2013-04-13 03:43:00,36.1,32.0,30.04,SSW,193,0.0,0.0,85,0.00,,,0.00,WUHU216DAVISVP2,2013-04-13 08:43:00,
2013-04-13 03:48:00,36.0,31.9,30.04,SSW,193,0.0,0.0,85,0.00,,,0.00,WUHU216DAVISVP2,2013-04-13 08:48:00,
2013-04-13 03:53:00,36.0,31.6,30.03,SSW,193,0.0,1.0,84,0.00,,,0.00,WUHU216DAVISVP2,2013-04-13 08:53:00,
2013-04-13 03:58:00,36.0,31.6,30.03,SSE,167,0.0,1.0,84,0.00,,,0.00,WUHU216DAVISVP2,2013-04-13 08:58:00,
2013-04-13 04:03:00,36.0,31.6,30.04,SSE,155,1.0,2.0,84,0.00,,,0.00,WUHU216DAVISVP2,2013-04-13 09:03:00,
2013-04-13 04:08:00,36.3,31.6,30.04,SSE,165,0.0,2.0,83,0.00,,,0.00,WUHU216DAVISVP2,2013-04-13 09:08:00,
2013-04-13 04:13:00,36.3,31.9,30.04,South,174,1.0,2.0,84,0.00,,,0.00,WUHU216DAVISVP2,2013-04-13 09:13:00,
2013-04-13 04:18:00,36.3,31.9,30.05,SSW,198,2.0,3.0,84,0.00,,,0.00,WUHU216DAVISVP2,2013-04-13 09:18:00,
2013-04-13 04:23:00,36.4,32.0,30.05,SSW,196,3.0,3.0,84,0.00,,,0.00,WUHU216DAVISVP2,2013-04-13 09:23:00,
2013-04-13 04:29:00,36.4,32.0,30.04,South,188,2.0,3.0,84,0.00,,,0.00,WUHU216DAVISVP2,2013-04-13 09:29:00,
2013-04-13 04:34:00,36.3,32.2,30.04,South,186,1.0,3.0,85,0.00,,,0.00,WUHU216DAVISVP2,2013-04-13 09:34:00,
2013-04-13 04:39:00,36.1,32.0,30.04,South,175,1.0,2.0,85,0.00,,,0.00,WUHU216DAVISVP2,2013-04-13 09:39:00,
2013-04-13 04:44:00,36.2,32.1,30.04,South,174,1.0,2.0,85,0.00,,,0.00,WUHU216DAVISVP2,2013-04-13 09:44:00,
2013-04-13 04:49:00,36.2,31.8,30.04,SSE,165,1.0,2.0,84,0.00,,,0.00,WUHU216DAVISVP2,2013-04-13 09:49:00,
2013-04-13 04:54:00,36.1,31.7,30.04,SSE,165,0.0,2.0,84,0.00,,,0.00,WUHU216DAVISVP2,2013-04-13 09:54:00,
2013-04-13 04:59:00,35.9,31.5,30.04,SSE,165,0.0,1.0,84,0.00,,,0.00,WUHU216DAVISVP2,2013-04-13 09:59:00,
2013-04-13 05:04:00,35.9,31.8,30.04,SSE,165,0.0,0.0,85,0.00,,,0.00,WUHU216DAVISVP2,2013-04-13 10:04:00,
2013-04-13 05:09:00,35.9,31.8,30.04,SSE,166,0.0,1.0,85,0.00,,,0.00,WUHU216DAVISVP2,2013-04-13 10:09:00,
2013-04-13 05:14:00,35.9,31.5,30.03,SSE,166,0.0,1.0,84,0.00,,,0.00,WUHU216DAVISVP2,2013-04-13 10:14:00,
2013-04-13 05:19:00,35.9,31.8,30.04,SSE,166,0.0,0.0,85,0.00,,,0.00,WUHU216DAVISVP2,2013-04-13 10:19:00,
2013-04-13 05:24:00,35.7,31.6,30.04,SSE,166,0.0,0.0,85,0.00,,,0.00,WUHU216DAVISVP2,2013-04-13 10:24:00,
2013-04-13 05:29:00,35.5,31.7,30.04,SSE,166,0.0,0.0,86,0.00,,,0.00,WUHU216DAVISVP2,2013-04-13 10:29:00,
2013-04-13 05:34:00,35.5,31.7,30.04,South,179,0.0,0.0,86,0.00,,,0.00,WUHU216DAVISVP2,2013-04-13 10:34:00,
2013-04-13 05:39:00,35.4,31.6,30.04,South,179,0.0,0.0,86,0.00,,,0.00,WUHU216DAVISVP2,2013-04-13 10:39:00,
2013-04-13 05:44:00,35.3,31.5,30.04,South,179,0.0,0.0,86,0.00,,,0.00,WUHU216DAVISVP2,2013-04-13 10:44:00,
2013-04-13 05:49:00,35.4,31.3,30.04,South,179,0.0,0.0,85,0.00,,,0.00,WUHU216DAVISVP2,2013-04-13 10:49:00,
2013-04-13 05:54:00,35.3,31.2,30.04,South,179,0.0,0.0,85,0.00,,,0.00,WUHU216DAVISVP2,2013-04-13 10:54:00,
2013-04-13 05:59:00,35.2,31.4,30.05,South,178,0.0,0.0,86,0.00,,,0.00,WUHU216DAVISVP2,2013-04-13 10:59:00,
2013-04-13 06:05:00,35.0,31.2,30.04,South,179,0.0,0.0,86,0.00,,,0.00,WUHU216DAVISVP2,2013-04-13 11:05:00,
2013-04-13 06:10:00,34.7,31.2,30.04,South,179,0.0,0.0,87,0.00,,,0.00,WUHU216DAVISVP2,2013-04-13 11:10:00,
2013-04-13 06:15:00,34.5,31.0,30.04,South,179,0.0,0.0,87,0.00,,,0.00,WUHU216DAVISVP2,2013-04-13 11:15:00,
2013-04-13 06:20:00,34.1,30.9,30.05,South,179,0.0,0.0,88,0.00,,,0.00,WUHU216DAVISVP2,2013-04-13 11:20:00,
2013-04-13 06:25:00,34.1,31.2,30.05,South,178,0.0,0.0,89,0.00,,,0.00,WUHU216DAVISVP2,2013-04-13 11:25:00,
2013-04-13 06:30:00,34.3,31.4,30.05,South,178,0.0,0.0,89,0.00,,,0.00,WUHU216DAVISVP2,2013-04-13 11:30:00,
2013-04-13 06:35:00,34.7,31.7,30.06,South,191,1.0,1.0,89,0.00,,,0.00,WUHU216DAVISVP2,2013-04-13 11:35:00,
2013-04-13 06:40:00,35.2,32.0,30.06,South,190,1.0,1.0,88,0.00,,,0.00,WUHU216DAVISVP2,2013-04-13 11:40:00,
2013-04-13 06:45:00,35.8,32.0,30.06,South,180,0.0,1.0,86,0.00,,,0.00,WUHU216DAVISVP2,2013-04-13 11:45:00,
2013-04-13 06:50:00,36.1,32.3,30.06,South,180,0.0,1.0,86,0.00,,,0.00,WUHU216DAVISVP2,2013-04-13 11:50:00,
2013-04-13 06:55:00,36.4,32.3,30.07,South,180,0.0,0.0,85,0.00,,,0.00,WUHU216DAVISVP2,2013-04-13 11:55:00,
2013-04-13 07:00:00,37.0,32.6,30.07,South,180,0.0,0.0,84,0.00,,,0.00,WUHU216DAVISVP2,2013-04-13 12:00:00,
2013-04-13 07:06:00,37.8,33.1,30.07,South,181,0.0,0.0,83,0.00,,,0.00,WUHU216DAVISVP2,2013-04-13 12:06:00,
2013-04-13 07:11:00,38.1,33.4,30.08,South,191,0.0,0.0,83,0.00,,,0.00,WUHU216DAVISVP2,2013-04-13 12:11:00,
2013-04-13 07:16:00,38.4,33.4,30.08,SW,216,0.0,0.0,82,0.00,,,0.00,WUHU216DAVISVP2,2013-04-13 12:16:00,
2013-04-13 07:22:00,38.7,33.7,30.08,SW,217,0.0,0.0,82,0.00,,,0.00,WUHU216DAVISVP2,2013-04-13 12:22:00,
2013-04-13 07:27:00,39.0,34.0,30.08,WSW,249,2.0,2.0,82,0.00,,,0.00,WUHU216DAVISVP2,2013-04-13 12:27:00,
2013-04-13 07:32:00,39.6,34.6,30.08,SW,228,4.0,4.0,82,0.00,,,0.00,WUHU216DAVISVP2,2013-04-13 12:32:00,
2013-04-13 07:37:00,40.1,34.7,30.08,West,259,1.0,4.0,81,0.00,,,0.00,WUHU216DAVISVP2,2013-04-13 12:37:00,
2013-04-13 07:43:00,40.6,35.5,30.08,SW,236,3.0,4.0,82,0.00,,,0.00,WUHU216DAVISVP2,2013-04-13 12:43:00,
2013-04-13 07:48:00,41.1,35.7,30.08,SSW,213,2.0,4.0,81,0.00,,,0.00,WUHU216DAVISVP2,2013-04-13 12:48:00,
2013-04-13 07:53:00,41.7,36.0,30.08,WSW,248,4.0,5.0,80,0.00,,,0.00,WUHU216DAVISVP2,2013-04-13 12:53:00,
2013-04-13 07:58:00,42.4,36.7,30.09,SSW,211,4.0,6.0,80,0.00,,,0.00,WUHU216DAVISVP2,2013-04-13 12:58:00,
2013-04-13 08:03:00,42.9,36.9,30.09,West,276,3.0,7.0,79,0.00,,,0.00,WUHU216DAVISVP2,2013-04-13 13:03:00,
2013-04-13 08:08:00,43.4,37.0,30.09,WSW,240,3.0,7.0,78,0.00,,,0.00,WUHU216DAVISVP2,2013-04-13 13:08:00,
2013-04-13 08:13:00,43.7,36.7,30.08,West,264,4.0,8.0,76,0.00,,,0.00,WUHU216DAVISVP2,2013-04-13 13:13:00,
2013-04-13 08:18:00,44.1,37.4,30.08,WSW,238,4.0,10.0,77,0.00,,,0.00,WUHU216DAVISVP2,2013-04-13 13:18:00,
2013-04-13 08:23:00,44.5,36.8,30.09,WSW,257,8.0,10.0,74,0.00,,,0.00,WUHU216DAVISVP2,2013-04-13 13:23:00,
2013-04-13 08:28:00,44.8,37.1,30.09,West,271,3.0,9.0,74,0.00,,,0.00,WUHU216DAVISVP2,2013-04-13 13:28:00,
2013-04-13 08:33:00,45.3,36.5,30.09,West,259,4.0,8.0,71,0.00,,,0.00,WUHU216DAVISVP2,2013-04-13 13:33:00,
2013-04-13 08:39:00,45.9,36.8,30.09,West,278,6.0,8.0,70,0.00,,,0.00,WUHU216DAVISVP2,2013-04-13 13:39:00,
2013-04-13 08:44:00,46.2,36.6,30.09,West,276,6.0,10.0,69,0.00,,,0.00,WUHU216DAVISVP2,2013-04-13 13:44:00,
2013-04-13 08:49:00,46.4,36.5,30.09,WNW,296,9.0,10.0,68,0.00,,,0.00,WUHU216DAVISVP2,2013-04-13 13:49:00,
2013-04-13 08:54:00,46.7,37.2,30.09,West,273,8.0,10.0,69,0.00,,,0.00,WUHU216DAVISVP2,2013-04-13 13:54:00,
2013-04-13 08:59:00,46.9,37.0,30.09,WSW,252,4.0,10.0,68,0.00,,,0.00,WUHU216DAVISVP2,2013-04-13 13:59:00,
2013-04-13 09:04:00,47.3,37.4,30.09,WNW,291,6.0,8.0,68,0.00,,,0.00,WUHU216DAVISVP2,2013-04-13 14:04:00,
2013-04-13 09:09:00,47.5,37.2,30.09,WNW,289,14.0,14.0,67,0.00,,,0.00,WUHU216DAVISVP2,2013-04-13 14:09:00,
2013-04-13 09:14:00,47.8,37.9,30.09,WSW,242,8.0,14.0,68,0.00,,,0.00,WUHU216DAVISVP2,2013-04-13 14:14:00,
2013-04-13 09:19:00,47.9,36.7,30.09,NW,316,8.0,10.0,65,0.00,,,0.00,WUHU216DAVISVP2,2013-04-13 14:19:00,
2013-04-13 09:24:00,48.2,36.7,30.09,WSW,252,7.0,11.0,64,0.00,,,0.00,WUHU216DAVISVP2,2013-04-13 14:24:00,
2013-04-13 09:29:00,48.6,38.5,30.09,West,260,7.0,11.0,68,0.00,,,0.00,WUHU216DAVISVP2,2013-04-13 14:29:00,
2013-04-13 09:35:00,48.9,38.9,30.09,West,262,9.0,13.0,68,0.00,,,0.00,WUHU216DAVISVP2,2013-04-13 14:35:00,
2013-04-13 09:40:00,49.3,36.1,30.09,West,281,12.0,15.0,60,0.00,,,0.00,WUHU216DAVISVP2,2013-04-13 14:40:00,
2013-04-13 09:45:00,49.3,34.8,30.09,West,280,8.0,15.0,57,0.00,,,0.00,WUHU216DAVISVP2,2013-04-13 14:45:00,
2013-04-13 09:50:00,49.3,35.7,30.10,NW,304,4.0,14.0,59,0.00,,,0.00,WUHU216DAVISVP2,2013-04-13 14:50:00,
2013-04-13 09:55:00,49.8,35.7,30.10,West,281,3.0,14.0,58,0.00,,,0.00,WUHU216DAVISVP2,2013-04-13 14:55:00,
2013-04-13 10:00:00,50.0,35.9,30.10,WSW,252,12.0,14.0,58,0.00,,,0.00,WUHU216DAVISVP2,2013-04-13 15:00:00,
2013-04-13 10:05:00,50.1,35.5,30.10,West,281,7.0,14.0,57,0.00,,,0.00,WUHU216DAVISVP2,2013-04-13 15:05:00,
2013-04-13 10:10:00,50.0,35.0,30.10,WNW,299,13.0,13.0,56,0.00,,,0.00,WUHU216DAVISVP2,2013-04-13 15:10:00,
2013-04-13 10:15:00,50.6,36.8,30.10,NW,321,3.0,13.0,59,0.00,,,0.00,WUHU216DAVISVP2,2013-04-13 15:15:00,
2013-04-13 10:20:00,51.0,35.8,30.10,NW,318,3.0,12.0,56,0.00,,,0.00,WUHU216DAVISVP2,2013-04-13 15:20:00,
2013-04-13 10:25:00,50.9,35.3,30.10,NW,319,8.0,12.0,55,0.00,,,0.00,WUHU216DAVISVP2,2013-04-13 15:25:00,
2013-04-13 10:30:00,51.2,38.3,30.10,WNW,300,7.0,11.0,61,0.00,,,0.00,WUHU216DAVISVP2,2013-04-13 15:30:00,
2013-04-13 10:36:00,51.1,37.8,30.10,WNW,284,10.0,14.0,60,0.00,,,0.00,WUHU216DAVISVP2,2013-04-13 15:36:00,
2013-04-13 10:41:00,50.8,36.2,30.10,SW,236,8.0,14.0,57,0.00,,,0.00,WUHU216DAVISVP2,2013-04-13 15:41:00,
2013-04-13 10:47:00,51.1,36.9,30.10,West,271,8.0,13.0,58,0.00,,,0.00,WUHU216DAVISVP2,2013-04-13 15:47:00,
2013-04-13 10:52:00,51.4,37.2,30.10,WNW,286,4.0,13.0,58,0.00,,,0.00,WUHU216DAVISVP2,2013-04-13 15:52:00,
2013-04-13 10:57:00,51.5,36.4,30.10,WNW,298,6.0,12.0,56,0.00,,,0.00,WUHU216DAVISVP2,2013-04-13 15:57:00,
2013-04-13 11:02:00,51.7,36.1,30.10,WNW,284,8.0,13.0,55,0.00,,,0.00,WUHU216DAVISVP2,2013-04-13 16:02:00,
2013-04-13 11:07:00,51.7,36.0,30.10,NNW,337,3.0,13.0,55,0.00,,,0.00,WUHU216DAVISVP2,2013-04-13 16:07:00,
2013-04-13 11:12:00,52.4,38.0,30.10,NW,311,5.0,10.0,58,0.00,,,0.00,WUHU216DAVISVP2,2013-04-13 16:12:00,
2013-04-13 11:17:00,52.4,36.8,30.10,WNW,300,8.0,14.0,55,0.00,,,0.00,WUHU216DAVISVP2,2013-04-13 16:17:00,
2013-04-13 11:22:00,52.9,37.7,30.10,WNW,288,4.0,14.0,56,0.00,,,0.00,WUHU216DAVISVP2,2013-04-13 16:22:00,
2013-04-13 11:27:00,52.9,36.7,30.10,West,275,7.0,14.0,54,0.00,,,0.00,WUHU216DAVISVP2,2013-04-13 16:27:00,
2013-04-13 11:33:00,52.8,37.6,30.10,West,274,8.0,13.0,56,0.00,,,0.00,WUHU216DAVISVP2,2013-04-13 16:33:00,
2013-04-13 11:38:00,53.2,37.5,30.10,SW,233,7.0,13.0,55,0.00,,,0.00,WUHU216DAVISVP2,2013-04-13 16:38:00,
2013-04-13 11:43:00,52.9,36.7,30.10,WNW,298,5.0,13.0,54,0.00,,,0.00,WUHU216DAVISVP2,2013-04-13 16:43:00,
2013-04-13 11:48:00,53.3,37.6,30.10,WSW,257,4.0,10.0,55,0.00,,,0.00,WUHU216DAVISVP2,2013-04-13 16:48:00,
2013-04-13 11:53:00,53.4,38.6,30.10,WSW,258,4.0,10.0,57,0.00,,,0.00,WUHU216DAVISVP2,2013-04-13 16:53:00,
2013-04-13 11:58:00,53.6,36.9,30.10,West,273,6.0,9.0,53,0.00,,,0.00,WUHU216DAVISVP2,2013-04-13 16:58:00,
2013-04-13 12:03:00,53.4,35.7,30.10,NW,304,6.0,9.0,51,0.00,,,0.00,WUHU216DAVISVP2,2013-04-13 17:03:00,
2013-04-13 12:08:00,53.8,36.6,30.09,WSW,243,4.0,10.0,52,0.00,,,0.00,WUHU216DAVISVP2,2013-04-13 17:08:00,
2013-04-13 12:13:00,54.4,40.5,30.09,WNW,285,9.0,15.0,59,0.00,,,0.00,WUHU216DAVISVP2,2013-04-13 17:13:00,
2013-04-13 12:18:00,54.2,35.4,30.09,West,265,4.0,15.0,49,0.00,,,0.00,WUHU216DAVISVP2,2013-04-13 17:18:00,
2013-04-13 12:23:00,54.5,36.2,30.09,WNW,283,8.0,12.0,50,0.00,,,0.00,WUHU216DAVISVP2,2013-04-13 17:23:00,
2013-04-13 12:28:00,54.4,36.1,30.09,West,274,5.0,12.0,50,0.00,,,0.00,WUHU216DAVISVP2,2013-04-13 17:28:00,
2013-04-13 12:33:00,54.4,35.6,30.09,WNW,295,6.0,11.0,49,0.00,,,0.00,WUHU216DAVISVP2,2013-04-13 17:33:00,
2013-04-13 12:39:00,54.9,36.6,30.09,NW,305,6.0,12.0,50,0.00,,,0.00,WUHU216DAVISVP2,2013-04-13 17:39:00,
2013-04-13 12:44:00,55.1,36.8,30.09,NW,318,6.0,12.0,50,0.00,,,0.00,WUHU216DAVISVP2,2013-04-13 17:44:00,
2013-04-13 12:49:00,55.4,35.4,30.08,West,259,8.0,12.0,47,0.00,,,0.00,WUHU216DAVISVP2,2013-04-13 17:49:00,
2013-04-13 12:55:00,55.7,39.4,30.08,West,272,5.0,12.0,54,0.00,,,0.00,WUHU216DAVISVP2,2013-04-13 17:55:00,
2013-04-13 13:00:00,55.6,36.2,30.08,WSW,243,6.0,9.0,48,0.00,,,0.00,WUHU216DAVISVP2,2013-04-13 18:00:00,
2013-04-13 13:05:00,56.1,36.6,30.08,SW,235,4.0,9.0,48,0.00,,,0.00,WUHU216DAVISVP2,2013-04-13 18:05:00,
2013-04-13 13:10:00,56.3,40.4,30.07,WSW,243,4.0,9.0,55,0.00,,,0.00,WUHU216DAVISVP2,2013-04-13 18:10:00,
2013-04-13 13:15:00,55.9,35.3,30.07,ENE,72,1.0,7.0,46,0.00,,,0.00,WUHU216DAVISVP2,2013-04-13 18:15:00,
2013-04-13 13:20:00,56.8,39.4,30.07,WSW,245,10.0,10.0,52,0.00,,,0.00,WUHU216DAVISVP2,2013-04-13 18:20:00,
2013-04-13 13:25:00,57.5,39.5,30.07,NW,307,3.0,10.0,51,0.00,,,0.00,WUHU216DAVISVP2,2013-04-13 18:25:00,
2013-04-13 13:27:00,57.6,39.6,30.07,West,266,3.0,10.0,51,0.00,,,0.00,WUHU216DAVISVP2,2013-04-13 18:27:00,
2013-04-13 13:32:00,56.9,39.0,30.07,West,259,2.0,9.0,51,0.00,,,0.00,WUHU216DAVISVP2,2013-04-13 18:32:00,
2013-04-13 13:37:00,56.8,37.3,30.07,SSW,198,6.0,9.0,48,0.00,,,0.00,WUHU216DAVISVP2,2013-04-13 18:37:00,
2013-04-13 13:42:00,56.8,37.3,30.07,WNW,282,9.0,10.0,48,0.00,,,0.00,WUHU216DAVISVP2,2013-04-13 18:42:00,
2013-04-13 13:47:00,57.0,36.9,30.07,NNE,18,1.0,10.0,47,0.00,,,0.00,WUHU216DAVISVP2,2013-04-13 18:47:00,
2013-04-13 13:52:00,57.6,36.9,30.06,SW,222,5.0,8.0,46,0.00,,,0.00,WUHU216DAVISVP2,2013-04-13 18:52:00,
2013-04-13 13:57:00,57.8,38.2,30.07,SW,233,1.0,8.0,48,0.00,,,0.00,WUHU216DAVISVP2,2013-04-13 18:57:00,
2013-04-13 14:02:00,57.8,37.1,30.07,SSW,212,3.0,9.0,46,0.00,,,0.00,WUHU216DAVISVP2,2013-04-13 19:02:00,
2013-04-13 14:07:00,57.4,35.6,30.07,SSE,150,1.0,9.0,44,0.00,,,0.00,WUHU216DAVISVP2,2013-04-13 19:07:00,
2013-04-13 14:12:00,58.2,36.9,30.06,SW,231,8.0,11.0,45,0.00,,,0.00,WUHU216DAVISVP2,2013-04-13 19:12:00,
2013-04-13 14:17:00,57.6,36.3,30.06,WSW,237,2.0,11.0,45,0.00,,,0.00,WUHU216DAVISVP2,2013-04-13 19:17:00,
2013-04-13 14:22:00,58.0,37.3,30.06,NW,325,2.0,9.0,46,0.00,,,0.00,WUHU216DAVISVP2,2013-04-13 19:22:00,
2013-04-13 14:27:00,58.1,36.8,30.05,NW,304,2.0,6.0,45,0.00,,,0.00,WUHU216DAVISVP2,2013-04-13 19:27:00,
2013-04-13 14:32:00,58.3,38.1,30.05,WSW,256,5.0,6.0,47,0.00,,,0.00,WUHU216DAVISVP2,2013-04-13 19:32:00,
2013-04-13 14:37:00,58.8,36.2,30.05,SE,142,1.0,7.0,43,0.00,,,0.00,WUHU216DAVISVP2,2013-04-13 19:37:00,
2013-04-13 14:42:00,58.9,38.7,30.05,West,268,7.0,8.0,47,0.00,,,0.00,WUHU216DAVISVP2,2013-04-13 19:42:00,
2013-04-13 14:47:00,58.6,36.6,30.05,WNW,285,5.0,10.0,44,0.00,,,0.00,WUHU216DAVISVP2,2013-04-13 19:47:00,
2013-04-13 14:52:00,59.2,38.4,30.05,NW,309,3.0,10.0,46,0.00,,,0.00,WUHU216DAVISVP2,2013-04-13 19:52:00,
2013-04-13 14:57:00,58.9,36.9,30.04,NNE,22,0.0,7.0,44,0.00,,,0.00,WUHU216DAVISVP2,2013-04-13 19:57:00,
2013-04-13 15:02:00,59.1,37.1,30.04,NW,309,4.0,7.0,44,0.00,,,0.00,WUHU216DAVISVP2,2013-04-13 20:02:00,
2013-04-13 15:07:00,59.2,38.4,30.04,West,269,3.0,9.0,46,0.00,,,0.00,WUHU216DAVISVP2,2013-04-13 20:07:00,
2013-04-13 15:13:00,59.5,38.1,30.04,NW,308,3.0,9.0,45,0.00,,,0.00,WUHU216DAVISVP2,2013-04-13 20:13:00,
2013-04-13 15:18:00,59.1,36.6,30.04,WNW,293,5.0,8.0,43,0.00,,,0.00,WUHU216DAVISVP2,2013-04-13 20:18:00,
2013-04-13 15:23:00,59.3,37.9,30.04,West,264,5.0,8.0,45,0.00,,,0.00,WUHU216DAVISVP2,2013-04-13 20:23:00,
2013-04-13 15:28:00,59.1,36.6,30.03,NNW,345,2.0,10.0,43,0.00,,,0.00,WUHU216DAVISVP2,2013-04-13 20:28:00,
2013-04-13 15:33:00,59.2,36.0,30.03,NW,319,3.0,10.0,42,0.00,,,0.00,WUHU216DAVISVP2,2013-04-13 20:33:00,
2013-04-13 15:38:00,59.7,36.4,30.03,NNW,335,1.0,7.0,42,0.00,,,0.00,WUHU216DAVISVP2,2013-04-13 20:38:00,
2013-04-13 15:43:00,60.0,39.1,30.02,South,186,3.0,5.0,46,0.00,,,0.00,WUHU216DAVISVP2,2013-04-13 20:43:00,
2013-04-13 15:48:00,60.5,38.4,30.02,NW,306,1.0,4.0,44,0.00,,,0.00,WUHU216DAVISVP2,2013-04-13 20:48:00,
2013-04-13 15:53:00,60.2,36.3,30.02,WNW,291,2.0,6.0,41,0.00,,,0.00,WUHU216DAVISVP2,2013-04-13 20:53:00,
2013-04-13 15:58:00,60.1,37.5,30.02,SW,217,4.0,6.0,43,0.00,,,0.00,WUHU216DAVISVP2,2013-04-13 20:58:00,
2013-04-13 16:03:00,60.3,37.7,30.02,South,189,2.0,12.0,43,0.00,,,0.00,WUHU216DAVISVP2,2013-04-13 21:03:00,
2013-04-13 16:08:00,61.1,37.8,30.02,ESE,118,2.0,12.0,42,0.00,,,0.00,WUHU216DAVISVP2,2013-04-13 21:08:00,
2013-04-13 16:13:00,61.1,37.1,30.01,West,263,3.0,7.0,41,0.00,,,0.00,WUHU216DAVISVP2,2013-04-13 21:13:00,
2013-04-13 16:18:00,60.9,36.9,30.01,NW,323,2.0,7.0,41,0.00,,,0.00,WUHU216DAVISVP2,2013-04-13 21:18:00,
2013-04-13 16:23:00,61.8,38.3,30.01,East,101,0.0,5.0,42,0.00,,,0.00,WUHU216DAVISVP2,2013-04-13 21:23:00,
2013-04-13 16:28:00,61.8,36.4,30.01,West,281,1.0,7.0,39,0.00,,,0.00,WUHU216DAVISVP2,2013-04-13 21:28:00,
2013-04-13 16:33:00,61.7,36.3,30.01,NNW,345,4.0,7.0,39,0.00,,,0.00,WUHU216DAVISVP2,2013-04-13 21:33:00,
2013-04-13 16:38:00,61.6,39.4,30.00,NW,316,6.0,6.0,44,0.00,,,0.00,WUHU216DAVISVP2,2013-04-13 21:38:00,
2013-04-13 16:43:00,60.9,36.9,30.00,NW,323,3.0,6.0,41,0.00,,,0.00,WUHU216DAVISVP2,2013-04-13 21:43:00,
2013-04-13 16:48:00,61.1,37.1,30.00,NW,319,0.0,4.0,41,0.00,,,0.00,WUHU216DAVISVP2,2013-04-13 21:48:00,
2013-04-13 16:53:00,61.4,36.7,30.01,NW,309,0.0,4.0,40,0.00,,,0.00,WUHU216DAVISVP2,2013-04-13 21:53:00,
2013-04-13 16:58:00,61.7,36.3,30.00,NNW,338,3.0,4.0,39,0.00,,,0.00,WUHU216DAVISVP2,2013-04-13 21:58:00,
2013-04-13 17:03:00,61.8,37.1,30.00,NW,326,4.0,5.0,40,0.00,,,0.00,WUHU216DAVISVP2,2013-04-13 22:03:00,
2013-04-13 17:08:00,61.8,39.0,30.00,South,187,0.0,5.0,43,0.00,,,0.00,WUHU216DAVISVP2,2013-04-13 22:08:00,
2013-04-13 17:13:00,62.6,37.1,30.00,WSW,248,0.0,4.0,39,0.00,,,0.00,WUHU216DAVISVP2,2013-04-13 22:13:00,
2013-04-13 17:18:00,62.7,37.2,30.00,SW,214,2.0,4.0,39,0.00,,,0.00,WUHU216DAVISVP2,2013-04-13 22:18:00,
2013-04-13 17:23:00,62.4,36.9,30.00,NW,309,0.0,4.0,39,0.00,,,0.00,WUHU216DAVISVP2,2013-04-13 22:23:00,
2013-04-13 17:28:00,62.8,36.6,30.00,WNW,297,1.0,2.0,38,0.00,,,0.00,WUHU216DAVISVP2,2013-04-13 22:28:00,
2013-04-13 17:33:00,62.7,37.2,30.00,WSW,250,0.0,2.0,39,0.00,,,0.00,WUHU216DAVISVP2,2013-04-13 22:33:00,
2013-04-13 17:38:00,62.2,36.1,29.99,West,271,1.0,3.0,38,0.00,,,0.00,WUHU216DAVISVP2,2013-04-13 22:38:00,
2013-04-13 17:43:00,62.2,37.4,29.99,SSW,213,1.0,3.0,40,0.00,,,0.00,WUHU216DAVISVP2,2013-04-13 22:43:00,
2013-04-13 17:48:00,62.6,37.1,29.99,ESE,117,2.0,3.0,39,0.00,,,0.00,WUHU216DAVISVP2,2013-04-13 22:48:00,
2013-04-13 17:53:00,62.4,36.9,29.99,East,86,1.0,2.0,39,0.00,,,0.00,WUHU216DAVISVP2,2013-04-13 22:53:00,
2013-04-13 17:58:00,61.8,37.1,29.99,ESE,103,1.0,3.0,40,0.00,,,0.00,WUHU216DAVISVP2,2013-04-13 22:58:00,
2013-04-13 18:03:00,62.0,37.9,29.99,ESE,105,1.0,3.0,41,0.00,,,0.00,WUHU216DAVISVP2,2013-04-13 23:03:00,
2013-04-13 18:08:00,61.9,38.4,29.99,ENE,78,2.0,6.0,42,0.00,,,0.00,WUHU216DAVISVP2,2013-04-13 23:08:00,
2013-04-13 18:13:00,62.3,39.4,29.99,SSE,158,0.0,6.0,43,0.00,,,0.00,WUHU216DAVISVP2,2013-04-13 23:13:00,
2013-04-13 18:18:00,62.1,37.3,29.98,NE,49,2.0,3.0,40,0.00,,,0.00,WUHU216DAVISVP2,2013-04-13 23:18:00,
2013-04-13 18:23:00,61.7,38.4,29.99,ESE,107,2.0,3.0,42,0.00,,,0.00,WUHU216DAVISVP2,2013-04-13 23:23:00,
2013-04-13 18:28:00,61.7,37.7,29.98,ESE,121,2.0,3.0,41,0.00,,,0.00,WUHU216DAVISVP2,2013-04-13 23:28:00,
2013-04-13 18:33:00,61.4,37.5,29.98,SSE,153,1.0,4.0,41,0.00,,,0.00,WUHU216DAVISVP2,2013-04-13 23:33:00,
2013-04-13 18:38:00,61.2,38.5,29.98,East,89,2.0,4.0,43,0.00,,,0.00,WUHU216DAVISVP2,2013-04-13 23:38:00,
2013-04-13 18:43:00,61.1,38.4,29.98,ESE,118,3.0,5.0,43,0.00,,,0.00,WUHU216DAVISVP2,2013-04-13 23:43:00,
2013-04-13 18:48:00,60.9,37.5,29.98,SE,139,2.0,5.0,42,0.00,,,0.00,WUHU216DAVISVP2,2013-04-13 23:48:00,
2013-04-13 18:53:00,60.6,37.9,29.98,SE,125,2.0,5.0,43,0.00,,,0.00,WUHU216DAVISVP2,2013-04-13 23:53:00,
2013-04-13 18:58:00,60.3,38.2,29.97,ESE,121,1.0,4.0,44,0.00,,,0.00,WUHU216DAVISVP2,2013-04-13 23:58:00,
2013-04-13 19:03:00,60.0,37.9,29.97,SE,133,1.0,4.0,44,0.00,,,0.00,WUHU216DAVISVP2,2013-04-14 00:03:00,
2013-04-13 19:08:00,59.7,38.2,29.97,ESE,110,0.0,4.0,45,0.00,,,0.00,WUHU216DAVISVP2,2013-04-14 00:08:00,
2013-04-13 19:13:00,59.4,38.5,29.96,East,89,2.0,4.0,46,0.00,,,0.00,WUHU216DAVISVP2,2013-04-14 00:13:00,
2013-04-13 19:18:00,59.0,38.7,29.96,East,99,1.0,4.0,47,0.00,,,0.00,WUHU216DAVISVP2,2013-04-14 00:18:00,
2013-04-13 19:23:00,58.5,38.8,29.96,ENE,72,2.0,4.0,48,0.00,,,0.00,WUHU216DAVISVP2,2013-04-14 00:23:00,
2013-04-13 19:28:00,58.2,38.6,29.97,East,87,0.0,4.0,48,0.00,,,0.00,WUHU216DAVISVP2,2013-04-14 00:28:00,
2013-04-13 19:33:00,57.9,38.8,29.97,East,86,1.0,4.0,49,0.00,,,0.00,WUHU216DAVISVP2,2013-04-14 00:33:00,
2013-04-13 19:38:00,57.6,38.6,29.97,SE,128,2.0,5.0,49,0.00,,,0.00,WUHU216DAVISVP2,2013-04-14 00:38:00,
2013-04-13 19:43:00,57.2,39.2,29.97,East,82,2.0,5.0,51,0.00,,,0.00,WUHU216DAVISVP2,2013-04-14 00:43:00,
2013-04-13 19:48:00,56.7,39.3,29.97,ENE,69,3.0,5.0,52,0.00,,,0.00,WUHU216DAVISVP2,2013-04-14 00:48:00,
2013-04-13 19:53:00,56.5,39.6,29.97,ENE,64,4.0,5.0,53,0.00,,,0.00,WUHU216DAVISVP2,2013-04-14 00:53:00,
2013-04-13 19:58:00,56.3,39.4,29.96,East,86,1.0,5.0,53,0.00,,,0.00,WUHU216DAVISVP2,2013-04-14 00:58:00,
2013-04-13 20:03:00,56.0,39.6,29.96,East,93,1.0,5.0,54,0.00,,,0.00,WUHU216DAVISVP2,2013-04-14 01:03:00,
2013-04-13 20:08:00,55.7,39.8,29.96,East,79,4.0,5.0,55,0.00,,,0.00,WUHU216DAVISVP2,2013-04-14 01:08:00,
2013-04-13 20:13:00,55.4,39.6,29.96,East,98,3.0,5.0,55,0.00,,,0.00,WUHU216DAVISVP2,2013-04-14 01:13:00,
2013-04-13 20:18:00,55.3,39.4,29.96,East,91,2.0,5.0,55,0.00,,,0.00,WUHU216DAVISVP2,2013-04-14 01:18:00,
2013-04-13 20:23:00,55.2,39.3,29.96,East,84,1.0,3.0,55,0.00,,,0.00,WUHU216DAVISVP2,2013-04-14 01:23:00,
2013-04-13 20:28:00,55.1,39.3,29.96,ENE,68,2.0,4.0,55,0.00,,,0.00,WUHU216DAVISVP2,2013-04-14 01:28:00,
2013-04-13 20:33:00,54.8,39.5,29.96,East,82,3.0,4.0,56,0.00,,,0.00,WUHU216DAVISVP2,2013-04-14 01:33:00,
2013-04-13 20:38:00,54.7,39.8,29.96,East,86,3.0,4.0,57,0.00,,,0.00,WUHU216DAVISVP2,2013-04-14 01:38:00,
2013-04-13 20:43:00,54.6,39.3,29.96,East,89,2.0,4.0,56,0.00,,,0.00,WUHU216DAVISVP2,2013-04-14 01:43:00,
2013-04-13 20:48:00,54.5,39.2,29.97,ENE,70,3.0,4.0,56,0.00,,,0.00,WUHU216DAVISVP2,2013-04-14 01:48:00,
2013-04-13 20:53:00,54.3,39.5,29.97,ENE,71,3.0,4.0,57,0.00,,,0.00,WUHU216DAVISVP2,2013-04-14 01:53:00,
2013-04-13 20:58:00,54.1,39.3,29.97,ENE,68,2.0,4.0,57,0.00,,,0.00,WUHU216DAVISVP2,2013-04-14 01:58:00,
2013-04-13 21:03:00,53.9,39.5,29.97,ENE,70,2.0,4.0,58,0.00,,,0.00,WUHU216DAVISVP2,2013-04-14 02:03:00,
2013-04-13 21:09:00,53.8,39.5,29.97,ESE,119,0.0,4.0,58,0.00,,,0.00,WUHU216DAVISVP2,2013-04-14 02:09:00,
2013-04-13 21:14:00,53.8,39.5,29.97,East,94,2.0,4.0,58,0.00,,,0.00,WUHU216DAVISVP2,2013-04-14 02:14:00,
2013-04-13 21:18:00,53.6,39.7,29.97,East,84,0.0,3.0,59,0.00,,,0.00,WUHU216DAVISVP2,2013-04-14 02:18:00,
2013-04-13 21:23:00,53.5,39.5,29.97,East,96,1.0,4.0,59,0.00,,,0.00,WUHU216DAVISVP2,2013-04-14 02:23:00,
2013-04-13 21:28:00,53.4,39.5,29.97,ENE,78,4.0,4.0,59,0.00,,,0.00,WUHU216DAVISVP2,2013-04-14 02:28:00,
2013-04-13 21:33:00,53.4,39.5,29.97,ENE,69,2.0,5.0,59,0.00,,,0.00,WUHU216DAVISVP2,2013-04-14 02:33:00,
2013-04-13 21:38:00,53.4,39.5,29.97,ENE,72,1.0,5.0,59,0.00,,,0.00,WUHU216DAVISVP2,2013-04-14 02:38:00,
2013-04-13 21:43:00,53.3,39.9,29.97,East,79,2.0,4.0,60,0.00,,,0.00,WUHU216DAVISVP2,2013-04-14 02:43:00,
2013-04-13 21:48:00,53.3,39.8,29.97,East,87,0.0,4.0,60,0.00,,,0.00,WUHU216DAVISVP2,2013-04-14 02:48:00,
2013-04-13 21:53:00,53.0,39.9,29.97,ENE,74,2.0,4.0,61,0.00,,,0.00,WUHU216DAVISVP2,2013-04-14 02:53:00,
2013-04-13 21:58:00,52.8,39.7,29.97,ENE,73,3.0,3.0,61,0.00,,,0.00,WUHU216DAVISVP2,2013-04-14 02:58:00,
2013-04-13 22:03:00,52.6,39.9,29.97,SE,131,1.0,3.0,62,0.00,,,0.00,WUHU216DAVISVP2,2013-04-14 03:03:00,
2013-04-13 22:08:00,52.6,39.9,29.97,East,86,1.0,3.0,62,0.00,,,0.00,WUHU216DAVISVP2,2013-04-14 03:08:00,
2013-04-13 22:13:00,52.5,39.8,29.97,East,94,3.0,3.0,62,0.00,,,0.00,WUHU216DAVISVP2,2013-04-14 03:13:00,
2013-04-13 22:19:00,52.5,40.0,29.97,ESE,123,1.0,3.0,62,0.00,,,0.00,WUHU216DAVISVP2,2013-04-14 03:19:00,
2013-04-13 22:23:00,52.6,40.1,29.97,SE,135,3.0,5.0,62,0.00,,,0.00,WUHU216DAVISVP2,2013-04-14 03:23:00,
2013-04-13 22:28:00,52.7,40.2,29.97,East,97,2.0,5.0,62,0.00,,,0.00,WUHU216DAVISVP2,2013-04-14 03:28:00,
2013-04-13 22:33:00,52.8,40.2,29.97,ESE,121,2.0,4.0,62,0.00,,,0.00,WUHU216DAVISVP2,2013-04-14 03:33:00,
2013-04-13 22:38:00,52.7,40.2,29.97,ESE,122,3.0,4.0,62,0.00,,,0.00,WUHU216DAVISVP2,2013-04-14 03:38:00,
2013-04-13 22:44:00,52.6,40.1,29.97,SE,136,2.0,5.0,62,0.00,,,0.00,WUHU216DAVISVP2,2013-04-14 03:44:00,
2013-04-13 22:49:00,52.7,39.7,29.96,SE,126,1.0,6.0,61,0.00,,,0.00,WUHU216DAVISVP2,2013-04-14 03:49:00,
2013-04-13 22:54:00,52.6,39.6,29.96,ESE,118,3.0,6.0,61,0.00,,,0.00,WUHU216DAVISVP2,2013-04-14 03:54:00,
2013-04-13 22:59:00,52.6,40.1,29.96,SE,146,1.0,4.0,62,0.00,,,0.00,WUHU216DAVISVP2,2013-04-14 03:59:00,
2013-04-13 23:00:00,52.5,40.0,29.96,ESE,110,5.0,5.0,62,0.00,,,0.00,WUHU216DAVISVP2,2013-04-14 04:00:00,
2013-04-13 23:05:00,52.5,40.0,29.96,East,100,4.0,7.0,62,0.00,,,0.00,WUHU216DAVISVP2,2013-04-14 04:05:00,
2013-04-13 23:10:00,52.4,39.9,29.96,SE,124,3.0,7.0,62,0.00,,,0.00,WUHU216DAVISVP2,2013-04-14 04:10:00,
2013-04-13 23:15:00,52.4,39.9,29.96,SE,136,2.0,4.0,62,0.00,,,0.00,WUHU216DAVISVP2,2013-04-14 04:15:00,
2013-04-13 23:20:00,52.4,39.9,29.96,East,88,2.0,4.0,62,0.00,,,0.00,WUHU216DAVISVP2,2013-04-14 04:20:00,
2013-04-13 23:25:00,52.2,40.1,29.96,ESE,105,2.0,4.0,63,0.00,,,0.00,WUHU216DAVISVP2,2013-04-14 04:25:00,
2013-04-13 23:30:00,52.1,40.0,29.95,ESE,103,5.0,5.0,63,0.00,,,0.00,WUHU216DAVISVP2,2013-04-14 04:30:00,
2013-04-13 23:35:00,52.1,40.0,29.95,ESE,120,2.0,5.0,63,0.00,,,0.00,WUHU216DAVISVP2,2013-04-14 04:35:00,
2013-04-13 23:40:00,52.2,40.0,29.95,East,101,0.0,5.0,63,0.00,,,0.00,WUHU216DAVISVP2,2013-04-14 04:40:00,
2013-04-13 23:45:00,52.0,40.3,29.95,ESE,122,2.0,5.0,64,0.00,,,0.00,WUHU216DAVISVP2,2013-04-14 04:45:00,
2013-04-13 23:50:00,51.9,40.1,29.95,East,98,1.0,5.0,64,0.00,,,0.00,WUHU216DAVISVP2,2013-04-14 04:50:00,
2013-04-13 23:55:00,51.7,39.9,29.95,ESE,119,2.0,5.0,64,0.00,,,0.00,WUHU216DAVISVP2,2013-04-14 04:55:00,